Year,Month,Day,Hour,Minute,Value (Times are PST for temperature in C)
2013,04,26,00,00,7.10
2013,04,26,00,01,7.10
2013,04,26,00,02,7.10
2013,04,26,00,03,7.10
2013,04,26,00,04,7.00
2013,04,26,00,05,7.00
2013,04,26,00,06,7.00
2013,04,26,00,07,7.10
2013,04,26,00,08,7.10
2013,04,26,00,09,7.10
2013,04,26,00,10,7.10
2013,04,26,00,11,7.10
2013,04,26,00,12,7.10
2013,04,26,00,13,7.10
2013,04,26,00,14,7.10
2013,04,26,00,15,7.10
2013,04,26,00,16,7.10
2013,04,26,00,17,7.10
2013,04,26,00,18,7.10
2013,04,26,00,19,7.10
2013,04,26,00,20,7.10
2013,04,26,00,21,7.10
2013,04,26,00,22,7.10
2013,04,26,00,23,7.10
2013,04,26,00,24,7.10
2013,04,26,00,25,7.10
2013,04,26,00,26,7.10
2013,04,26,00,27,7.10
2013,04,26,00,28,7.00
2013,04,26,00,29,7.00
2013,04,26,00,30,7.00
2013,04,26,00,31,7.00
2013,04,26,00,32,7.00
2013,04,26,00,33,7.00
2013,04,26,00,34,7.00
2013,04,26,00,35,7.00
2013,04,26,00,36,7.00
2013,04,26,00,37,7.00
2013,04,26,00,38,7.00
2013,04,26,00,39,6.90
2013,04,26,00,40,6.90
2013,04,26,00,41,6.90
2013,04,26,00,42,6.90
2013,04,26,00,43,6.80
2013,04,26,00,44,6.80
2013,04,26,00,45,6.80
2013,04,26,00,46,6.80
2013,04,26,00,47,6.80
2013,04,26,00,48,6.70
2013,04,26,00,49,6.70
2013,04,26,00,50,6.70
2013,04,26,00,51,6.70
2013,04,26,00,52,6.70
2013,04,26,00,53,6.70
2013,04,26,00,54,6.70
2013,04,26,00,55,6.70
2013,04,26,00,56,6.70
2013,04,26,00,57,6.70
2013,04,26,00,58,6.70
2013,04,26,00,59,6.70
2013,04,26,01,00,6.70
2013,04,26,01,01,6.70
2013,04,26,01,02,6.70
2013,04,26,01,03,6.70
2013,04,26,01,04,6.70
2013,04,26,01,05,6.70
2013,04,26,01,06,6.70
2013,04,26,01,07,6.70
2013,04,26,01,08,6.70
2013,04,26,01,09,6.70
2013,04,26,01,10,6.70
2013,04,26,01,11,6.70
2013,04,26,01,12,6.70
2013,04,26,01,13,6.70
2013,04,26,01,14,6.70
2013,04,26,01,15,6.70
2013,04,26,01,16,6.70
2013,04,26,01,17,6.70
2013,04,26,01,18,6.70
2013,04,26,01,19,6.70
2013,04,26,01,20,6.70
2013,04,26,01,21,6.70
2013,04,26,01,22,6.70
2013,04,26,01,23,6.70
2013,04,26,01,24,6.70
2013,04,26,01,25,6.60
2013,04,26,01,26,6.60
2013,04,26,01,27,6.60
2013,04,26,01,28,6.60
2013,04,26,01,29,6.60
2013,04,26,01,30,6.60
2013,04,26,01,31,6.60
2013,04,26,01,32,6.50
2013,04,26,01,33,6.50
2013,04,26,01,34,6.40
2013,04,26,01,35,6.40
2013,04,26,01,36,6.30
2013,04,26,01,37,6.30
2013,04,26,01,38,6.30
2013,04,26,01,39,6.30
2013,04,26,01,40,6.30
2013,04,26,01,41,6.30
2013,04,26,01,42,6.20
2013,04,26,01,43,6.20
2013,04,26,01,44,6.20
2013,04,26,01,45,6.20
2013,04,26,01,46,6.20
2013,04,26,01,47,6.20
2013,04,26,01,48,6.20
2013,04,26,01,49,6.10
2013,04,26,01,50,6.20
2013,04,26,01,51,6.20
2013,04,26,01,52,6.20
2013,04,26,01,53,6.20
2013,04,26,01,54,6.20
2013,04,26,01,55,6.20
2013,04,26,01,56,6.20
2013,04,26,01,57,6.20
2013,04,26,01,58,6.20
2013,04,26,01,59,6.20
2013,04,26,02,00,6.20
2013,04,26,02,01,6.20
2013,04,26,02,02,6.20
2013,04,26,02,03,6.20
2013,04,26,02,04,6.20
2013,04,26,02,05,6.20
2013,04,26,02,06,6.20
2013,04,26,02,07,6.20
2013,04,26,02,08,6.20
2013,04,26,02,09,6.20
2013,04,26,02,10,6.20
2013,04,26,02,11,6.20
2013,04,26,02,12,6.20
2013,04,26,02,13,6.10
2013,04,26,02,14,6.10
2013,04,26,02,15,6.10
2013,04,26,02,16,6.10
2013,04,26,02,17,6.00
2013,04,26,02,18,5.90
2013,04,26,02,19,5.90
2013,04,26,02,20,5.80
2013,04,26,02,21,5.80
2013,04,26,02,22,5.80
2013,04,26,02,23,5.80
2013,04,26,02,24,5.80
2013,04,26,02,25,5.80
2013,04,26,02,26,5.80
2013,04,26,02,27,5.80
2013,04,26,02,28,5.80
2013,04,26,02,29,5.80
2013,04,26,02,30,5.80
2013,04,26,02,31,5.80
2013,04,26,02,32,5.80
2013,04,26,02,33,5.80
2013,04,26,02,34,5.80
2013,04,26,02,35,5.80
2013,04,26,02,36,5.80
2013,04,26,02,37,5.80
2013,04,26,02,38,5.90
2013,04,26,02,39,5.80
2013,04,26,02,40,5.80
2013,04,26,02,41,5.80
2013,04,26,02,42,5.80
2013,04,26,02,43,5.80
2013,04,26,02,44,5.80
2013,04,26,02,45,5.80
2013,04,26,02,46,5.80
2013,04,26,02,47,5.80
2013,04,26,02,48,5.80
2013,04,26,02,49,5.80
2013,04,26,02,50,5.70
2013,04,26,02,51,5.70
2013,04,26,02,52,5.70
2013,04,26,02,53,5.70
2013,04,26,02,54,5.70
2013,04,26,02,55,5.60
2013,04,26,02,56,5.60
2013,04,26,02,57,5.60
2013,04,26,02,58,5.60
2013,04,26,02,59,5.60
2013,04,26,03,00,5.60
2013,04,26,03,01,5.60
2013,04,26,03,02,5.60
2013,04,26,03,03,5.60
2013,04,26,03,04,5.60
2013,04,26,03,05,5.60
2013,04,26,03,06,5.60
2013,04,26,03,07,5.60
2013,04,26,03,08,5.60
2013,04,26,03,09,5.60
2013,04,26,03,10,5.60
2013,04,26,03,11,5.60
2013,04,26,03,12,5.60
2013,04,26,03,13,5.60
2013,04,26,03,14,5.60
2013,04,26,03,15,5.70
2013,04,26,03,16,5.70
2013,04,26,03,17,5.60
2013,04,26,03,18,5.60
2013,04,26,03,19,5.60
2013,04,26,03,20,5.60
2013,04,26,03,21,5.60
2013,04,26,03,22,5.60
2013,04,26,03,23,5.60
2013,04,26,03,24,5.60
2013,04,26,03,25,5.50
2013,04,26,03,26,5.50
2013,04,26,03,27,5.50
2013,04,26,03,28,5.40
2013,04,26,03,29,5.40
2013,04,26,03,30,5.40
2013,04,26,03,31,5.40
2013,04,26,03,32,5.30
2013,04,26,03,33,5.30
2013,04,26,03,34,5.30
2013,04,26,03,35,5.30
2013,04,26,03,36,5.30
2013,04,26,03,37,5.30
2013,04,26,03,38,5.30
2013,04,26,03,39,5.30
2013,04,26,03,40,5.30
2013,04,26,03,41,5.30
2013,04,26,03,42,5.20
2013,04,26,03,43,5.20
2013,04,26,03,44,5.20
2013,04,26,03,45,5.20
2013,04,26,03,49,5.20
2013,04,26,03,50,5.20
2013,04,26,03,51,5.20
2013,04,26,03,52,5.20
2013,04,26,03,53,5.20
2013,04,26,03,54,5.20
2013,04,26,03,55,5.20
2013,04,26,03,56,5.20
2013,04,26,03,57,5.20
2013,04,26,03,58,5.20
2013,04,26,03,59,5.20
2013,04,26,04,00,5.10
2013,04,26,04,01,5.10
2013,04,26,04,02,5.10
2013,04,26,04,03,5.10
2013,04,26,04,04,5.10
2013,04,26,04,05,5.10
2013,04,26,04,06,5.10
2013,04,26,04,07,5.10
2013,04,26,04,08,5.10
2013,04,26,04,09,5.10
2013,04,26,04,10,5.10
2013,04,26,04,11,5.10
2013,04,26,04,12,5.10
2013,04,26,04,13,5.10
2013,04,26,04,14,5.10
2013,04,26,04,15,5.10
2013,04,26,04,16,5.10
2013,04,26,04,17,5.10
2013,04,26,04,18,5.10
2013,04,26,04,19,5.10
2013,04,26,04,20,5.00
2013,04,26,04,21,5.00
2013,04,26,04,22,4.90
2013,04,26,04,23,4.90
2013,04,26,04,24,4.90
2013,04,26,04,25,4.90
2013,04,26,04,26,4.90
2013,04,26,04,27,4.90
2013,04,26,04,28,4.90
2013,04,26,04,29,4.90
2013,04,26,04,30,4.90
2013,04,26,04,31,4.90
2013,04,26,04,32,4.90
2013,04,26,04,33,4.90
2013,04,26,04,34,4.90
2013,04,26,04,35,4.90
2013,04,26,04,36,4.90
2013,04,26,04,37,4.90
2013,04,26,04,38,4.90
2013,04,26,04,39,4.90
2013,04,26,04,40,4.90
2013,04,26,04,41,4.90
2013,04,26,04,42,4.80
2013,04,26,04,43,4.80
2013,04,26,04,44,4.80
2013,04,26,04,45,4.80
2013,04,26,04,46,4.90
2013,04,26,04,47,4.90
2013,04,26,04,48,4.90
2013,04,26,04,49,4.90
2013,04,26,04,50,4.90
2013,04,26,04,51,4.80
2013,04,26,04,52,4.80
2013,04,26,04,53,4.80
2013,04,26,04,54,4.70
2013,04,26,04,55,4.70
2013,04,26,04,56,4.70
2013,04,26,04,57,4.70
2013,04,26,04,58,4.70
2013,04,26,04,59,4.60
2013,04,26,05,00,4.60
2013,04,26,05,01,4.70
2013,04,26,05,02,4.70
2013,04,26,05,03,4.70
2013,04,26,05,04,4.70
2013,04,26,05,05,4.70
2013,04,26,05,06,4.70
2013,04,26,05,07,4.70
2013,04,26,05,08,4.60
2013,04,26,05,09,4.60
2013,04,26,05,10,4.60
2013,04,26,05,11,4.60
2013,04,26,05,12,4.50
2013,04,26,05,13,4.50
2013,04,26,05,14,4.50
2013,04,26,05,15,4.40
2013,04,26,05,16,4.40
2013,04,26,05,17,4.40
2013,04,26,05,18,4.40
2013,04,26,05,19,4.40
2013,04,26,05,20,4.30
2013,04,26,05,21,4.30
2013,04,26,05,22,4.30
2013,04,26,05,23,4.40
2013,04,26,05,24,4.40
2013,04,26,05,25,4.40
2013,04,26,05,26,4.40
2013,04,26,05,27,4.40
2013,04,26,05,28,4.50
2013,04,26,05,29,4.50
2013,04,26,05,30,4.50
2013,04,26,05,31,4.50
2013,04,26,05,32,4.60
2013,04,26,05,33,4.60
2013,04,26,05,34,4.60
2013,04,26,05,35,4.60
2013,04,26,05,36,4.60
2013,04,26,05,37,4.60
2013,04,26,05,38,4.60
2013,04,26,05,39,4.60
2013,04,26,05,40,4.60
2013,04,26,05,41,4.60
2013,04,26,05,42,4.60
2013,04,26,05,43,4.60
2013,04,26,05,44,4.60
2013,04,26,05,45,4.60
2013,04,26,05,46,4.60
2013,04,26,05,47,4.50
2013,04,26,05,48,4.50
2013,04,26,05,49,4.40
2013,04,26,05,50,4.40
2013,04,26,05,51,4.30
2013,04,26,05,52,4.30
2013,04,26,05,53,4.30
2013,04,26,05,54,4.20
2013,04,26,05,55,4.20
2013,04,26,05,56,4.20
2013,04,26,05,57,4.20
2013,04,26,05,58,4.20
2013,04,26,05,59,4.20
2013,04,26,06,00,4.20
2013,04,26,06,01,4.20
2013,04,26,06,02,4.30
2013,04,26,06,03,4.30
2013,04,26,06,04,4.30
2013,04,26,06,05,4.30
2013,04,26,06,06,4.30
2013,04,26,06,07,4.30
2013,04,26,06,08,4.30
2013,04,26,06,09,4.30
2013,04,26,06,10,4.30
2013,04,26,06,11,4.30
2013,04,26,06,12,4.30
2013,04,26,06,13,4.30
2013,04,26,06,14,4.30
2013,04,26,06,15,4.20
2013,04,26,06,16,4.20
2013,04,26,06,17,4.20
2013,04,26,06,18,4.10
2013,04,26,06,19,4.10
2013,04,26,06,20,4.10
2013,04,26,06,21,4.00
2013,04,26,06,22,4.00
2013,04,26,06,23,4.00
2013,04,26,06,24,4.00
2013,04,26,06,25,3.90
2013,04,26,06,26,4.00
2013,04,26,06,27,4.00
2013,04,26,06,28,4.00
2013,04,26,06,29,4.00
2013,04,26,06,30,4.10
2013,04,26,06,31,4.10
2013,04,26,06,32,4.10
2013,04,26,06,33,4.10
2013,04,26,06,34,4.10
2013,04,26,06,35,4.10
2013,04,26,06,36,4.10
2013,04,26,06,37,4.10
2013,04,26,06,38,4.10
2013,04,26,06,39,4.10
2013,04,26,06,40,4.10
2013,04,26,06,41,4.00
2013,04,26,06,42,4.10
2013,04,26,06,43,4.10
2013,04,26,06,44,4.10
2013,04,26,06,45,4.10
2013,04,26,06,46,4.10
2013,04,26,06,47,4.10
2013,04,26,06,48,4.10
2013,04,26,06,49,4.10
2013,04,26,06,50,4.10
2013,04,26,06,51,4.10
2013,04,26,06,52,4.10
2013,04,26,06,53,4.10
2013,04,26,06,54,4.10
2013,04,26,06,55,4.20
2013,04,26,06,56,4.20
2013,04,26,06,57,4.20
2013,04,26,06,58,4.30
2013,04,26,06,59,4.30
2013,04,26,07,00,4.30
2013,04,26,07,01,4.40
2013,04,26,07,02,4.40
2013,04,26,07,03,4.40
2013,04,26,07,04,4.50
2013,04,26,07,05,4.50
2013,04,26,07,06,4.60
2013,04,26,07,07,4.60
2013,04,26,07,08,4.70
2013,04,26,07,09,4.70
2013,04,26,07,10,4.80
2013,04,26,07,11,4.80
2013,04,26,07,12,4.90
2013,04,26,07,13,4.90
2013,04,26,07,14,5.00
2013,04,26,07,15,5.10
2013,04,26,07,16,5.10
2013,04,26,07,17,5.20
2013,04,26,07,18,5.30
2013,04,26,07,19,5.40
2013,04,26,07,20,5.50
2013,04,26,07,21,5.50
2013,04,26,07,22,5.60
2013,04,26,07,23,5.60
2013,04,26,07,24,5.70
2013,04,26,07,25,5.70
2013,04,26,07,26,5.80
2013,04,26,07,27,5.80
2013,04,26,07,28,5.90
2013,04,26,07,29,5.90
2013,04,26,07,30,6.00
2013,04,26,07,31,6.10
2013,04,26,07,32,6.10
2013,04,26,07,33,6.20
2013,04,26,07,34,6.30
2013,04,26,07,35,6.40
2013,04,26,07,36,6.50
2013,04,26,07,37,6.50
2013,04,26,07,38,6.60
2013,04,26,07,39,6.70
2013,04,26,07,40,6.80
2013,04,26,07,41,6.90
2013,04,26,07,42,7.10
2013,04,26,07,43,7.20
2013,04,26,07,44,7.30
2013,04,26,07,45,7.50
2013,04,26,07,46,7.60
2013,04,26,07,47,7.80
2013,04,26,07,48,7.80
2013,04,26,07,49,7.90
2013,04,26,07,50,8.00
2013,04,26,07,51,8.10
2013,04,26,07,52,8.10
2013,04,26,07,53,8.10
2013,04,26,07,54,8.10
2013,04,26,07,55,8.20
2013,04,26,07,56,8.20
2013,04,26,07,57,8.20
2013,04,26,07,58,8.10
2013,04,26,07,59,8.10
2013,04,26,08,00,8.20
2013,04,26,08,01,8.20
2013,04,26,08,02,8.20
2013,04,26,08,03,8.20
2013,04,26,08,04,8.30
2013,04,26,08,05,8.40
2013,04,26,08,06,8.50
2013,04,26,08,07,8.50
2013,04,26,08,08,8.60
2013,04,26,08,09,8.70
2013,04,26,08,10,8.70
2013,04,26,08,11,8.80
2013,04,26,08,12,8.90
2013,04,26,08,13,9.00
2013,04,26,08,14,9.10
2013,04,26,08,15,9.20
2013,04,26,08,16,9.30
2013,04,26,08,17,9.30
2013,04,26,08,18,9.40
2013,04,26,08,19,9.40
2013,04,26,08,20,9.40
2013,04,26,08,21,9.50
2013,04,26,08,22,9.60
2013,04,26,08,23,9.60
2013,04,26,08,24,9.70
2013,04,26,08,25,9.80
2013,04,26,08,26,9.80
2013,04,26,08,27,9.90
2013,04,26,08,28,10.00
2013,04,26,08,29,10.10
2013,04,26,08,30,10.20
2013,04,26,08,31,10.20
2013,04,26,08,32,10.20
2013,04,26,08,33,10.30
2013,04,26,08,34,10.30
2013,04,26,08,35,10.30
2013,04,26,08,36,10.30
2013,04,26,08,37,10.30
2013,04,26,08,38,10.40
2013,04,26,08,39,10.50
2013,04,26,08,40,10.60
2013,04,26,08,41,10.70
2013,04,26,08,42,10.80
2013,04,26,08,43,11.00
2013,04,26,08,44,11.10
2013,04,26,08,45,11.20
2013,04,26,08,46,11.30
2013,04,26,08,47,11.40
2013,04,26,08,48,11.50
2013,04,26,08,49,11.60
2013,04,26,08,50,11.70
2013,04,26,08,51,11.80
2013,04,26,08,52,11.90
2013,04,26,08,53,12.00
2013,04,26,08,54,12.00
2013,04,26,08,55,12.10
2013,04,26,08,56,12.10
2013,04,26,08,57,12.20
2013,04,26,08,58,12.30
2013,04,26,08,59,12.30
2013,04,26,09,00,12.40
2013,04,26,09,01,12.40
2013,04,26,09,02,12.40
2013,04,26,09,03,12.50
2013,04,26,09,04,12.50
2013,04,26,09,05,12.60
2013,04,26,09,06,12.60
2013,04,26,09,07,12.60
2013,04,26,09,08,12.70
2013,04,26,09,09,12.70
2013,04,26,09,10,12.70
2013,04,26,09,11,12.70
2013,04,26,09,12,12.60
2013,04,26,09,13,12.60
2013,04,26,09,14,12.50
2013,04,26,09,15,12.30
2013,04,26,09,16,12.30
2013,04,26,09,17,12.20
2013,04,26,09,18,12.10
2013,04,26,09,19,12.00
2013,04,26,09,20,11.90
2013,04,26,09,21,11.90
2013,04,26,09,22,11.80
2013,04,26,09,23,11.70
2013,04,26,09,24,11.60
2013,04,26,09,25,11.60
2013,04,26,09,26,11.50
2013,04,26,09,27,11.50
2013,04,26,09,28,11.50
2013,04,26,09,29,11.60
2013,04,26,09,30,11.60
2013,04,26,09,31,11.60
2013,04,26,09,32,11.60
2013,04,26,09,33,11.60
2013,04,26,09,34,11.60
2013,04,26,09,35,11.60
2013,04,26,09,36,11.60
2013,04,26,09,37,11.50
2013,04,26,09,38,11.50
2013,04,26,09,39,11.60
2013,04,26,09,40,11.60
2013,04,26,09,41,11.60
2013,04,26,09,42,11.70
2013,04,26,09,43,11.70
2013,04,26,09,44,11.80
2013,04,26,09,45,11.80
2013,04,26,09,46,11.80
2013,04,26,09,47,11.90
2013,04,26,09,48,11.90
2013,04,26,09,49,11.90
2013,04,26,09,50,11.90
2013,04,26,09,51,12.00
2013,04,26,09,52,12.10
2013,04,26,09,53,12.10
2013,04,26,09,54,12.20
2013,04,26,09,55,12.20
2013,04,26,09,56,12.30
2013,04,26,09,57,12.40
2013,04,26,09,58,12.50
2013,04,26,09,59,12.60
2013,04,26,10,00,12.70
2013,04,26,10,01,12.80
2013,04,26,10,02,12.70
2013,04,26,10,03,12.70
2013,04,26,10,04,12.70
2013,04,26,10,05,12.70
2013,04,26,10,06,12.70
2013,04,26,10,07,12.70
2013,04,26,10,08,12.70
2013,04,26,10,09,12.80
2013,04,26,10,10,12.80
2013,04,26,10,11,12.80
2013,04,26,10,12,12.90
2013,04,26,10,13,12.90
2013,04,26,10,14,12.90
2013,04,26,10,15,12.90
2013,04,26,10,16,12.90
2013,04,26,10,17,12.90
2013,04,26,10,18,12.90
2013,04,26,10,19,12.80
2013,04,26,10,20,12.80
2013,04,26,10,21,12.70
2013,04,26,10,22,12.60
2013,04,26,10,23,12.50
2013,04,26,10,24,12.50
2013,04,26,10,25,12.40
2013,04,26,10,26,12.40
2013,04,26,10,27,12.50
2013,04,26,10,28,12.60
2013,04,26,10,29,12.60
2013,04,26,10,30,12.60
2013,04,26,10,31,12.60
2013,04,26,10,32,12.60
2013,04,26,10,33,12.60
2013,04,26,10,34,12.60
2013,04,26,10,35,12.60
2013,04,26,10,36,12.60
2013,04,26,10,37,12.50
2013,04,26,10,38,12.50
2013,04,26,10,39,12.50
2013,04,26,10,40,12.50
2013,04,26,10,41,12.50
2013,04,26,10,42,12.50
2013,04,26,10,43,12.50
2013,04,26,10,44,12.50
2013,04,26,10,45,12.40
2013,04,26,10,46,12.40
2013,04,26,10,47,12.30
2013,04,26,10,48,12.30
2013,04,26,10,49,12.30
2013,04,26,10,50,12.30
2013,04,26,10,51,12.30
2013,04,26,10,52,12.30
2013,04,26,10,53,12.40
2013,04,26,10,54,12.30
2013,04,26,10,55,12.30
2013,04,26,10,56,12.40
2013,04,26,10,57,12.40
2013,04,26,10,58,12.40
2013,04,26,10,59,12.40
2013,04,26,11,00,12.40
2013,04,26,11,01,12.40
2013,04,26,11,02,12.40
2013,04,26,11,03,12.50
2013,04,26,11,04,12.50
2013,04,26,11,05,12.60
2013,04,26,11,06,12.70
2013,04,26,11,07,12.80
2013,04,26,11,08,12.80
2013,04,26,11,09,12.90
2013,04,26,11,10,12.90
2013,04,26,11,11,13.00
2013,04,26,11,12,12.90
2013,04,26,11,13,12.90
2013,04,26,11,14,12.80
2013,04,26,11,15,12.60
2013,04,26,11,16,12.50
2013,04,26,11,17,12.40
2013,04,26,11,18,12.30
2013,04,26,11,19,12.20
2013,04,26,11,20,12.20
2013,04,26,11,21,12.10
2013,04,26,11,22,12.10
2013,04,26,11,23,12.00
2013,04,26,11,24,11.90
2013,04,26,11,25,11.80
2013,04,26,11,26,11.80
2013,04,26,11,27,11.80
2013,04,26,11,28,11.90
2013,04,26,11,29,12.00
2013,04,26,11,30,12.00
2013,04,26,11,31,12.10
2013,04,26,11,32,12.10
2013,04,26,11,33,12.10
2013,04,26,11,34,12.00
2013,04,26,11,35,12.00
2013,04,26,11,36,12.10
2013,04,26,11,37,12.10
2013,04,26,11,38,12.10
2013,04,26,11,39,12.10
2013,04,26,11,40,12.10
2013,04,26,11,41,12.10
2013,04,26,11,42,12.10
2013,04,26,11,43,12.20
2013,04,26,11,44,12.20
2013,04,26,11,45,12.30
2013,04,26,11,46,12.30
2013,04,26,11,47,12.30
2013,04,26,11,48,12.30
2013,04,26,11,49,12.30
2013,04,26,11,50,12.30
2013,04,26,11,51,12.40
2013,04,26,11,52,12.40
2013,04,26,11,53,12.40
2013,04,26,11,54,12.50
2013,04,26,11,55,12.50
2013,04,26,11,56,12.50
2013,04,26,11,57,12.60
2013,04,26,11,58,12.60
2013,04,26,11,59,12.60
2013,04,26,12,00,12.70
2013,04,26,12,01,12.60
2013,04,26,12,02,12.60
2013,04,26,12,03,12.60
2013,04,26,12,04,12.60
2013,04,26,12,05,12.60
2013,04,26,12,06,12.60
2013,04,26,12,07,12.60
2013,04,26,12,08,12.70
2013,04,26,12,09,12.70
2013,04,26,12,10,12.80
2013,04,26,12,11,12.80
2013,04,26,12,12,12.80
2013,04,26,12,13,12.80
2013,04,26,12,14,12.70
2013,04,26,12,15,12.70
2013,04,26,12,16,12.60
2013,04,26,12,17,12.60
2013,04,26,12,18,12.60
2013,04,26,12,19,12.60
2013,04,26,12,20,12.60
2013,04,26,12,21,12.70
2013,04,26,12,22,12.70
2013,04,26,12,23,12.90
2013,04,26,12,24,13.00
2013,04,26,12,25,13.10
2013,04,26,12,26,13.20
2013,04,26,12,27,13.30
2013,04,26,12,28,13.30
2013,04,26,12,29,13.30
2013,04,26,12,30,13.30
2013,04,26,12,31,13.40
2013,04,26,12,32,13.50
2013,04,26,12,33,13.60
2013,04,26,12,34,13.60
2013,04,26,12,35,13.70
2013,04,26,12,36,13.70
2013,04,26,12,37,13.70
2013,04,26,12,38,13.70
2013,04,26,12,39,13.70
2013,04,26,12,40,13.60
2013,04,26,12,41,13.50
2013,04,26,12,42,13.40
2013,04,26,12,43,13.30
2013,04,26,12,44,13.30
2013,04,26,12,45,13.30
2013,04,26,12,46,13.20
2013,04,26,12,47,13.20
2013,04,26,12,48,13.20
2013,04,26,12,49,13.30
2013,04,26,12,50,13.30
2013,04,26,12,51,13.30
2013,04,26,12,52,13.40
2013,04,26,12,53,13.40
2013,04,26,12,54,13.30
2013,04,26,12,55,13.20
2013,04,26,12,56,13.10
2013,04,26,12,57,13.10
2013,04,26,12,58,13.10
2013,04,26,12,59,13.00
2013,04,26,13,00,13.00
2013,04,26,13,01,12.90
2013,04,26,13,02,12.90
2013,04,26,13,03,12.90
2013,04,26,13,04,12.90
2013,04,26,13,05,12.90
2013,04,26,13,06,12.90
2013,04,26,13,07,12.90
2013,04,26,13,08,12.90
2013,04,26,13,09,12.90
2013,04,26,13,10,12.90
2013,04,26,13,11,12.90
2013,04,26,13,12,12.90
2013,04,26,13,13,12.90
2013,04,26,13,14,12.90
2013,04,26,13,15,12.90
2013,04,26,13,16,12.80
2013,04,26,13,17,12.70
2013,04,26,13,18,12.70
2013,04,26,13,19,12.60
2013,04,26,13,20,12.50
2013,04,26,13,21,12.50
2013,04,26,13,22,12.40
2013,04,26,13,23,12.40
2013,04,26,13,24,12.40
2013,04,26,13,25,12.40
2013,04,26,13,26,12.50
2013,04,26,13,27,12.50
2013,04,26,13,28,12.60
2013,04,26,13,29,12.60
2013,04,26,13,30,12.60
2013,04,26,13,31,12.50
2013,04,26,13,32,12.40
2013,04,26,13,33,12.40
2013,04,26,13,34,12.40
2013,04,26,13,35,12.40
2013,04,26,13,36,12.40
2013,04,26,13,37,12.40
2013,04,26,13,38,12.40
2013,04,26,13,39,12.40
2013,04,26,13,40,12.40
2013,04,26,13,41,12.40
2013,04,26,13,42,12.30
2013,04,26,13,43,12.30
2013,04,26,13,44,12.30
2013,04,26,13,45,12.40
2013,04,26,13,46,12.40
2013,04,26,13,47,12.40
2013,04,26,13,48,12.40
2013,04,26,13,49,12.40
2013,04,26,13,50,12.40
2013,04,26,13,51,12.50
2013,04,26,13,52,12.50
2013,04,26,13,53,12.50
2013,04,26,13,54,12.40
2013,04,26,13,55,12.40
2013,04,26,13,56,12.40
2013,04,26,13,57,12.40
2013,04,26,13,58,12.50
2013,04,26,13,59,12.60
2013,04,26,14,00,12.70
2013,04,26,14,01,12.70
2013,04,26,14,02,12.70
2013,04,26,14,03,12.70
2013,04,26,14,04,12.70
2013,04,26,14,05,12.90
2013,04,26,14,06,12.90
2013,04,26,14,07,13.00
2013,04,26,14,08,13.10
2013,04,26,14,09,13.20
2013,04,26,14,10,13.30
2013,04,26,14,11,13.40
2013,04,26,14,12,13.40
2013,04,26,14,13,13.40
2013,04,26,14,14,13.40
2013,04,26,14,15,13.30
2013,04,26,14,16,13.30
2013,04,26,14,17,13.30
2013,04,26,14,18,13.30
2013,04,26,14,19,13.30
2013,04,26,14,20,13.30
2013,04,26,14,21,13.30
2013,04,26,14,22,13.30
2013,04,26,14,23,13.20
2013,04,26,14,24,13.20
2013,04,26,14,25,13.20
2013,04,26,14,26,13.30
2013,04,26,14,27,13.30
2013,04,26,14,28,13.30
2013,04,26,14,29,13.30
2013,04,26,14,30,13.30
2013,04,26,14,31,13.30
2013,04,26,14,32,13.40
2013,04,26,14,33,13.50
2013,04,26,14,34,13.60
2013,04,26,14,35,13.80
2013,04,26,14,36,13.90
2013,04,26,14,37,14.00
2013,04,26,14,38,14.10
2013,04,26,14,39,14.20
2013,04,26,14,40,14.20
2013,04,26,14,41,14.20
2013,04,26,14,42,14.20
2013,04,26,14,43,14.10
2013,04,26,14,44,14.10
2013,04,26,14,45,14.10
2013,04,26,14,46,14.10
2013,04,26,14,47,14.10
2013,04,26,14,48,14.10
2013,04,26,14,49,14.10
2013,04,26,14,50,14.10
2013,04,26,14,51,14.10
2013,04,26,14,52,14.10
2013,04,26,14,53,14.00
2013,04,26,14,54,14.00
2013,04,26,14,55,14.00
2013,04,26,14,56,13.90
2013,04,26,14,57,13.90
2013,04,26,14,58,14.00
2013,04,26,14,59,14.00
2013,04,26,15,00,14.00
2013,04,26,15,01,13.90
2013,04,26,15,02,13.90
2013,04,26,15,03,13.90
2013,04,26,15,04,14.00
2013,04,26,15,05,13.90
2013,04,26,15,06,13.90
2013,04,26,15,07,13.90
2013,04,26,15,08,13.80
2013,04,26,15,09,13.90
2013,04,26,15,10,13.90
2013,04,26,15,11,14.00
2013,04,26,15,12,14.00
2013,04,26,15,13,14.00
2013,04,26,15,14,14.00
2013,04,26,15,15,14.10
2013,04,26,15,16,14.10
2013,04,26,15,17,14.10
2013,04,26,15,18,14.20
2013,04,26,15,19,14.30
2013,04,26,15,20,14.40
2013,04,26,15,21,14.40
2013,04,26,15,22,14.40
2013,04,26,15,23,14.40
2013,04,26,15,24,14.40
2013,04,26,15,25,14.40
2013,04,26,15,26,14.30
2013,04,26,15,27,14.30
2013,04,26,15,28,14.30
2013,04,26,15,29,14.30
2013,04,26,15,30,14.30
2013,04,26,15,31,14.30
2013,04,26,15,32,14.30
2013,04,26,15,33,14.30
2013,04,26,15,34,14.40
2013,04,26,15,35,14.40
2013,04,26,15,36,14.50
2013,04,26,15,37,14.60
2013,04,26,15,38,14.60
2013,04,26,15,39,14.70
2013,04,26,15,40,14.70
2013,04,26,15,41,14.70
2013,04,26,15,42,14.80
2013,04,26,15,43,14.90
2013,04,26,15,44,14.90
2013,04,26,15,45,15.00
2013,04,26,15,46,15.00
2013,04,26,15,47,15.00
2013,04,26,15,48,15.00
2013,04,26,15,49,15.00
2013,04,26,15,50,15.00
2013,04,26,15,51,15.00
2013,04,26,15,52,15.00
2013,04,26,15,53,15.00
2013,04,26,15,54,15.00
2013,04,26,15,55,15.00
2013,04,26,15,56,15.00
2013,04,26,15,57,15.00
2013,04,26,15,58,15.10
2013,04,26,15,59,15.20
2013,04,26,16,00,15.20
2013,04,26,16,01,15.30
2013,04,26,16,02,15.30
2013,04,26,16,03,15.30
2013,04,26,16,04,15.30
2013,04,26,16,05,15.20
2013,04,26,16,06,15.20
2013,04,26,16,07,15.10
2013,04,26,16,08,15.10
2013,04,26,16,09,15.10
2013,04,26,16,10,15.00
2013,04,26,16,11,15.00
2013,04,26,16,12,15.00
2013,04,26,16,13,15.00
2013,04,26,16,14,15.00
2013,04,26,16,15,15.00
2013,04,26,16,16,15.00
2013,04,26,16,17,15.00
2013,04,26,16,18,14.90
2013,04,26,16,19,14.90
2013,04,26,16,20,15.00
2013,04,26,16,21,15.00
2013,04,26,16,22,15.00
2013,04,26,16,23,15.20
2013,04,26,16,24,15.20
2013,04,26,16,25,15.00
2013,04,26,16,26,15.00
2013,04,26,16,27,14.80
2013,04,26,16,28,14.90
2013,04,26,16,29,14.90
2013,04,26,16,30,14.90
2013,04,26,16,31,14.80
2013,04,26,16,32,14.80
2013,04,26,16,33,14.80
2013,04,26,16,34,15.00
2013,04,26,16,35,15.00
2013,04,26,16,36,15.00
2013,04,26,16,37,15.00
2013,04,26,16,38,15.00
2013,04,26,16,39,15.00
2013,04,26,16,40,15.00
2013,04,26,16,41,15.20
2013,04,26,16,42,15.10
2013,04,26,16,43,15.20
2013,04,26,16,44,15.30
2013,04,26,16,45,15.40
2013,04,26,16,46,15.60
2013,04,26,16,47,15.70
2013,04,26,16,48,15.70
2013,04,26,16,49,15.80
2013,04,26,16,50,15.80
2013,04,26,16,51,15.80
2013,04,26,16,52,15.80
2013,04,26,16,53,15.80
2013,04,26,16,54,15.80
2013,04,26,16,55,15.70
2013,04,26,16,56,15.70
2013,04,26,16,57,15.70
2013,04,26,16,58,15.70
2013,04,26,16,59,15.70
2013,04,26,17,00,15.80
2013,04,26,17,01,15.80
2013,04,26,17,02,15.90
2013,04,26,17,03,15.90
2013,04,26,17,04,15.90
2013,04,26,17,05,15.80
2013,04,26,17,06,15.90
2013,04,26,17,07,15.90
2013,04,26,17,08,15.90
2013,04,26,17,09,16.00
2013,04,26,17,10,16.00
2013,04,26,17,11,16.10
2013,04,26,17,12,16.30
2013,04,26,17,13,16.40
2013,04,26,17,14,16.50
2013,04,26,17,15,16.50
2013,04,26,17,16,16.60
2013,04,26,17,17,16.60
2013,04,26,17,18,16.60
2013,04,26,17,19,16.60
2013,04,26,17,20,16.60
2013,04,26,17,21,16.60
2013,04,26,17,22,16.60
2013,04,26,17,23,16.60
2013,04,26,17,24,16.60
2013,04,26,17,25,16.60
2013,04,26,17,26,16.50
2013,04,26,17,27,16.40
2013,04,26,17,28,16.30
2013,04,26,17,29,16.30
2013,04,26,17,30,16.30
2013,04,26,17,31,16.30
2013,04,26,17,32,16.30
2013,04,26,17,33,16.30
2013,04,26,17,34,16.30
2013,04,26,17,35,16.30
2013,04,26,17,36,16.40
2013,04,26,17,37,16.40
2013,04,26,17,38,16.40
2013,04,26,17,39,16.30
2013,04,26,17,40,16.30
2013,04,26,17,41,16.20
2013,04,26,17,42,16.20
2013,04,26,17,43,16.20
2013,04,26,17,44,16.20